Date,TemperatureHighF,TemperatureAvgF,TemperatureLowF,DewpointHighF,DewpointAvgF,DewpointLowF,HumidityHigh,HumidityAvg,HumidityLow,PressureMaxIn,PressureMinIn,WindSpeedMaxMPH,WindSpeedAvgMPH,GustSpeedMaxMPH,PrecipitationSumIn
2013-1-1,43.1,41.2,38.8,34.0,30.6,28.0,74,66,60,30.02,29.90,4,0,6,0.00
2013-1-2,38.6,34.2,28.9,30.0,21.7,16.0,73,61,45,30.23,29.99,4,1,9,0.00
2013-1-3,35.1,31.5,25.9,27.0,20.8,17.0,76,65,55,30.26,30.16,4,1,6,0.00
2013-1-4,43.2,37.5,33.5,28.0,24.1,22.0,75,59,47,30.21,30.10,6,1,12,0.00
2013-1-5,41.3,36.7,31.9,33.0,25.6,22.0,85,65,52,30.39,30.15,4,1,9,0.00
2013-1-6,49.9,41.8,32.6,35.0,32.4,29.0,94,71,46,30.21,30.03,3,0,8,0.00
2013-1-7,47.6,40.3,29.5,32.0,29.7,27.0,92,67,50,30.44,30.13,8,1,9,0.00
2013-1-8,51.5,41.4,30.3,38.0,34.3,29.0,94,77,55,30.44,30.37,5,1,10,0.00
2013-1-9,55.7,44.1,33.1,46.0,38.5,32.0,96,82,47,30.39,30.23,4,0,10,0.00
2013-1-10,51.9,45.2,37.2,34.0,31.2,29.0,77,59,48,30.59,30.37,8,1,8,0.00
2013-1-11,46.0,40.6,33.8,44.0,37.0,30.0,96,87,71,30.51,30.09,2,0,3,0.01
2013-1-12,52.8,44.6,41.5,46.0,42.7,40.0,97,93,78,30.17,30.10,2,0,5,0.00
2013-1-13,53.5,45.9,40.5,53.0,45.2,40.0,98,97,96,30.14,29.99,5,0,7,0.00
2013-1-14,58.6,52.6,41.4,57.0,49.4,38.0,98,89,72,30.28,29.96,7,2,9,0.01
2013-1-15,41.1,38.9,36.3,40.0,37.7,35.0,96,95,93,30.34,30.15,5,1,8,0.01
2013-1-16,41.6,38.3,35.1,41.0,37.2,34.0,96,95,94,30.15,29.86,6,0,10,0.00
2013-1-17,42.5,40.2,37.4,41.0,37.4,33.0,97,89,74,30.13,29.98,3,0,4,0.00
2013-1-18,38.8,34.7,27.8,33.0,22.8,14.0,80,63,42,30.51,30.04,9,2,16,0.00
2013-1-19,50.2,41.5,35.6,36.0,31.0,24.0,75,67,54,30.44,30.01,9,4,14,0.00
2013-1-20,58.2,47.1,39.4,36.0,28.3,17.0,65,50,31,30.08,29.82,10,3,15,0.00
2013-1-21,44.4,35.5,28.3,35.0,23.1,15.0,86,62,48,30.12,29.79,8,2,14,0.00
2013-1-22,31.7,23.1,19.3,16.0,3.1,-2.0,54,42,33,30.29,29.91,10,4,18,0.00
2013-1-23,25.9,21.7,16.8,12.0,3.7,0.0,63,46,34,30.36,30.17,10,2,14,0.00
2013-1-24,26.5,22.0,17.3,15.0,9.7,2.0,87,61,36,30.51,30.10,7,2,13,0.00
2013-1-25,25.2,22.6,20.6,19.0,10.3,4.0,88,61,45,30.51,30.09,5,1,7,0.00
2013-1-26,34.0,28.0,22.8,21.0,19.6,18.0,84,71,55,30.44,30.09,4,1,9,0.01
2013-1-27,35.9,27.5,20.7,25.0,20.3,17.0,89,75,52,30.61,30.44,4,0,6,0.00
2013-1-28,46.7,36.4,28.3,42.0,33.0,25.0,94,87,80,30.52,30.05,10,1,13,0.00
2013-1-29,63.5,49.0,37.4,52.0,44.1,36.0,96,84,66,30.14,30.01,4,0,5,0.00
2013-1-30,65.2,58.1,48.6,59.0,54.0,46.0,95,86,76,30.01,29.31,7,2,14,0.00
2013-1-31,60.7,46.7,31.7,58.0,32.7,15.0,94,60,39,29.93,29.13,10,4,26,0.00